owner,sensor,date,latitude,longitude,vertical_datum,direction_of_sea_water_velocity,sea_water_speed,upward_sea_water_velocity,qcFlag 
TABS,ioos:station:wmo:42046:1,2003-02-01T00:00:00Z,27.8903,-94.0367,2.0,107.5219937,8.137573348,-99999.0,'11133222,11111222,99999999' 
TABS,ioos:station:wmo:42046:1,2003-02-01T00:30:00Z,27.8903,-94.0367,2.0,105.8832271,7.600164472,-99999.0,'11133222,11111222,99999999' 
TABS,ioos:station:wmo:42046:1,2003-02-01T01:00:00Z,27.8903,-94.0367,2.0,103.6763574,8.881829766,-99999.0,'11133222,11111222,99999999' 
TABS,ioos:station:wmo:42046:1,2003-02-01T01:30:00Z,27.8903,-94.0367,2.0,105.7766597,8.863915613,-99999.0,'11133222,11111222,99999999' 
TABS,ioos:station:wmo:42046:1,2003-02-01T02:00:00Z,27.8903,-94.0367,2.0,89.79114681,8.230054678,-99999.0,'11133222,11111222,99999999' 
TABS,ioos:station:wmo:42046:1,2003-02-01T02:30:00Z,27.8903,-94.0367,2.0,81.86002616,8.192539289,-99999.0,'11133222,11111222,99999999' 
TABS,ioos:station:wmo:42046:1,2003-02-01T03:00:00Z,27.8903,-94.0367,2.0,91.45261024,9.072915739,-99999.0,'11133222,11111222,99999999' 
TABS,ioos:station:wmo:42046:1,2003-02-01T03:30:00Z,27.8903,-94.0367,2.0,82.40944051,9.311594922,-99999.0,'11133222,11111222,99999999' 
TABS,ioos:station:wmo:42046:1,2003-02-01T04:00:00Z,27.8903,-94.0367,2.0,88.17203603,9.404786016,-99999.0,'11133222,11111222,99999999' 
TABS,ioos:station:wmo:42046:1,2003-02-01T04:30:00Z,27.8903,-94.0367,2.0,82.55299184,9.490047418,-99999.0,'11133222,11111222,99999999' 
TABS,ioos:station:wmo:42046:1,2003-02-01T05:00:00Z,27.8903,-94.0367,2.0,78.05263213,10.04765147,-99999.0,'11111222,11111222,99999999' 
TABS,ioos:station:wmo:42046:1,2003-02-01T05:30:00Z,27.8903,-94.0367,2.0,86.70032532,10.07670581,-99999.0,'11111222,11111222,99999999' 
TABS,ioos:station:wmo:42046:1,2003-02-01T06:30:00Z,27.8903,-94.0367,2.0,92.48202766,9.929315183,-99999.0,'11133222,11111222,99999999' 
TABS,ioos:station:wmo:42046:1,2003-02-01T07:00:00Z,27.8903,-94.0367,2.0,99.66910534,9.109407226,-99999.0,'11133222,11111222,99999999' 
TABS,ioos:station:wmo:42046:1,2003-02-01T07:30:00Z,27.8903,-94.0367,2.0,102.2417481,9.526620597,-99999.0,'11133222,11111222,99999999' 
TABS,ioos:station:wmo:42046:1,2003-02-01T08:00:00Z,27.8903,-94.0367,2.0,109.0772967,9.025707728,-99999.0,'11133222,11111222,99999999' 
TABS,ioos:station:wmo:42046:1,2003-02-01T08:30:00Z,27.8903,-94.0367,2.0,109.8496027,8.069429967,-99999.0,'11133222,11111222,99999999' 
TABS,ioos:station:wmo:42046:1,2003-02-01T09:30:00Z,27.8903,-94.0367,2.0,114.2798356,7.514692276,-99999.0,'11133222,11111222,99999999' 
TABS,ioos:station:wmo:42046:1,2003-02-01T10:00:00Z,27.8903,-94.0367,2.0,119.2337338,9.316619559,-99999.0,'11133222,11111222,99999999' 
TABS,ioos:station:wmo:42046:1,2003-02-01T10:30:00Z,27.8903,-94.0367,2.0,106.394489,6.483617817,-99999.0,'11133222,11111222,99999999' 
TABS,ioos:station:wmo:42046:1,2003-02-01T11:00:00Z,27.8903,-94.0367,2.0,99.59311183,7.920763852,-99999.0,'11133222,11111222,99999999' 
TABS,ioos:station:wmo:42046:1,2003-02-01T11:30:00Z,27.8903,-94.0367,2.0,114.6163327,6.049826444,-99999.0,'11133222,11111222,99999999' 
TABS,ioos:station:wmo:42046:1,2003-02-01T12:00:00Z,27.8903,-94.0367,2.0,121.8710343,7.689245737,-99999.0,'11133222,11111222,99999999' 
TABS,ioos:station:wmo:42046:1,2003-02-01T12:30:00Z,27.8903,-94.0367,2.0,82.7757012,2.14704448,-99999.0,'11133222,11111222,99999999' 
TABS,ioos:station:wmo:42046:1,2003-02-01T13:00:00Z,27.8903,-94.0367,2.0,107.7064763,5.721022636,-99999.0,'11133222,11111222,99999999' 
TABS,ioos:station:wmo:42046:1,2003-02-01T13:30:00Z,27.8903,-94.0367,2.0,108.3497711,2.128215215,-99999.0,'11133222,11111222,99999999' 
TABS,ioos:station:wmo:42046:1,2003-02-01T14:00:00Z,27.8903,-94.0367,2.0,73.45032048,4.03725154,-99999.0,'11133222,11111222,99999999' 
TABS,ioos:station:wmo:42046:1,2003-02-01T14:30:00Z,27.8903,-94.0367,2.0,94.82684749,4.516015943,-99999.0,'11133222,11111222,99999999' 
TABS,ioos:station:wmo:42046:1,2003-02-01T15:00:00Z,27.8903,-94.0367,2.0,36.61687635,5.432053019,-99999.0,'11133222,11111222,99999999' 
TABS,ioos:station:wmo:42046:1,2003-02-01T15:30:00Z,27.8903,-94.0367,2.0,44.71716607,5.727634765,-99999.0,'11133222,11111222,99999999' 
TABS,ioos:station:wmo:42046:1,2003-02-01T16:00:00Z,27.8903,-94.0367,2.0,27.88886849,6.969447611,-99999.0,'11133222,11111222,99999999' 
TABS,ioos:station:wmo:42046:1,2003-02-01T16:30:00Z,27.8903,-94.0367,2.0,20.87917852,6.229028817,-99999.0,'11133222,11111222,99999999' 
TABS,ioos:station:wmo:42046:1,2003-02-01T17:00:00Z,27.8903,-94.0367,2.0,26.98362663,8.573313245,-99999.0,'11133222,11111222,99999999' 
TABS,ioos:station:wmo:42046:1,2003-02-01T17:30:00Z,27.8903,-94.0367,2.0,14.65401194,8.775448706,-99999.0,'11133222,11111222,99999999' 
TABS,ioos:station:wmo:42046:1,2003-02-01T18:00:00Z,27.8903,-94.0367,2.0,8.400873351,9.582817957,-99999.0,'11133222,11111222,99999999' 
TABS,ioos:station:wmo:42046:1,2003-02-01T18:30:00Z,27.8903,-94.0367,2.0,1.762597361,9.104306673,-99999.0,'11133222,11111222,99999999' 
TABS,ioos:station:wmo:42046:1,2003-02-01T19:00:00Z,27.8903,-94.0367,2.0,4.175386588,10.0266096,-99999.0,'11111222,11111222,99999999' 
TABS,ioos:station:wmo:42046:1,2003-02-01T19:30:00Z,27.8903,-94.0367,2.0,6.950528841,10.57773133,-99999.0,'11111222,11111222,99999999' 
TABS,ioos:station:wmo:42046:1,2003-02-01T20:00:00Z,27.8903,-94.0367,2.0,3.839084285,10.75412944,-99999.0,'11111222,11111222,99999999' 
TABS,ioos:station:wmo:42046:1,2003-02-01T20:30:00Z,27.8903,-94.0367,2.0,11.9852665,9.486796087,-99999.0,'11133222,11111222,99999999' 
TABS,ioos:station:wmo:42046:1,2003-02-01T21:00:00Z,27.8903,-94.0367,2.0,2.834864262,10.31261848,-99999.0,'11111222,11111222,99999999' 
TABS,ioos:station:wmo:42046:1,2003-02-01T21:30:00Z,27.8903,-94.0367,2.0,10.03995891,10.4398659,-99999.0,'11111222,11111222,99999999' 
TABS,ioos:station:wmo:42046:1,2003-02-01T22:00:00Z,27.8903,-94.0367,2.0,19.26354665,11.15451926,-99999.0,'11111222,11111222,99999999' 
TABS,ioos:station:wmo:42046:1,2003-02-01T22:30:00Z,27.8903,-94.0367,2.0,23.98320527,11.31704909,-99999.0,'11111222,11111222,99999999' 
TABS,ioos:station:wmo:42046:1,2003-02-01T23:00:00Z,27.8903,-94.0367,2.0,30.96389458,9.037975437,-99999.0,'11133222,11111222,99999999' 
TABS,ioos:station:wmo:42046:1,2003-02-01T23:30:00Z,27.8903,-94.0367,2.0,31.82603232,10.82793147,-99999.0,'11111222,11111222,99999999' 
TABS,ioos:station:wmo:42046:1,2003-02-02T00:00:00Z,27.8903,-94.0367,2.0,29.84400939,7.897303337,-99999.0,'11133222,11111222,99999999' 
TABS,ioos:station:wmo:42046:1,2003-02-02T00:30:00Z,27.8903,-94.0367,2.0,36.13155822,9.31077333,-99999.0,'11133222,11111222,99999999' 
TABS,ioos:station:wmo:42046:1,2003-02-02T01:00:00Z,27.8903,-94.0367,2.0,47.0388951,8.745375921,-99999.0,'11133222,11111222,99999999' 
TABS,ioos:station:wmo:42046:1,2003-02-02T01:30:00Z,27.8903,-94.0367,2.0,56.99697648,9.253064357,-99999.0,'11133222,11111222,99999999' 
TABS,ioos:station:wmo:42046:1,2003-02-02T02:00:00Z,27.8903,-94.0367,2.0,52.44750466,8.728619593,-99999.0,'11133222,11111222,99999999' 
TABS,ioos:station:wmo:42046:1,2003-02-02T02:30:00Z,27.8903,-94.0367,2.0,55.20793599,8.219403871,-99999.0,'11133222,11111222,99999999' 
TABS,ioos:station:wmo:42046:1,2003-02-02T03:00:00Z,27.8903,-94.0367,2.0,51.638271,6.606239475,-99999.0,'11133222,11111222,99999999' 
TABS,ioos:station:wmo:42046:1,2003-02-02T03:30:00Z,27.8903,-94.0367,2.0,65.55088277,9.084629877,-99999.0,'11133222,11111222,99999999' 
TABS,ioos:station:wmo:42046:1,2003-02-02T04:00:00Z,27.8903,-94.0367,2.0,53.24353293,8.088015826,-99999.0,'11133222,11111222,99999999' 
TABS,ioos:station:wmo:42046:1,2003-02-02T04:30:00Z,27.8903,-94.0367,2.0,58.2348606,8.092094908,-99999.0,'11133222,11111222,99999999' 
TABS,ioos:station:wmo:42046:1,2003-02-02T05:00:00Z,27.8903,-94.0367,2.0,53.89390662,8.552759789,-99999.0,'11133222,11111222,99999999' 
TABS,ioos:station:wmo:42046:1,2003-02-02T05:30:00Z,27.8903,-94.0367,2.0,46.17499478,8.621444195,-99999.0,'11133222,11111222,99999999' 
TABS,ioos:station:wmo:42046:1,2003-02-02T06:00:00Z,27.8903,-94.0367,2.0,46.61432898,8.283507711,-99999.0,'11133222,11111222,99999999' 
TABS,ioos:station:wmo:42046:1,2003-02-02T06:30:00Z,27.8903,-94.0367,2.0,57.22301199,9.051082808,-99999.0,'11133222,11111222,99999999' 
TABS,ioos:station:wmo:42046:1,2003-02-02T07:00:00Z,27.8903,-94.0367,2.0,53.39860743,4.696051533,-99999.0,'11133222,11111222,99999999' 
TABS,ioos:station:wmo:42046:1,2003-02-02T07:30:00Z,27.8903,-94.0367,2.0,69.74580046,5.777231171,-99999.0,'11133222,11111222,99999999' 
TABS,ioos:station:wmo:42046:1,2003-02-02T08:00:00Z,27.8903,-94.0367,2.0,70.18163702,7.72769694,-99999.0,'11133222,11111222,99999999' 
TABS,ioos:station:wmo:42046:1,2003-02-02T08:30:00Z,27.8903,-94.0367,2.0,105.6338917,5.30631699,-99999.0,'11133222,11111222,99999999' 
TABS,ioos:station:wmo:42046:1,2003-02-02T09:00:00Z,27.8903,-94.0367,2.0,104.3769986,3.26216186,-99999.0,'11133222,11111222,99999999' 
TABS,ioos:station:wmo:42046:1,2003-02-02T09:30:00Z,27.8903,-94.0367,2.0,111.750156,4.155863328,-99999.0,'11133222,11111222,99999999' 
TABS,ioos:station:wmo:42046:1,2003-02-02T10:00:00Z,27.8903,-94.0367,2.0,53.21929526,5.144006221,-99999.0,'11133222,11111222,99999999' 
TABS,ioos:station:wmo:42046:1,2003-02-02T10:30:00Z,27.8903,-94.0367,2.0,113.2892226,4.14797541,-99999.0,'11133222,11111222,99999999' 
TABS,ioos:station:wmo:42046:1,2003-02-02T11:00:00Z,27.8903,-94.0367,2.0,116.2585982,3.345205524,-99999.0,'11133222,11111222,99999999' 
TABS,ioos:station:wmo:42046:1,2003-02-02T11:30:00Z,27.8903,-94.0367,2.0,71.7606418,0.926552751,-99999.0,'11133222,11111222,99999999' 
TABS,ioos:station:wmo:42046:1,2003-02-02T12:00:00Z,27.8903,-94.0367,2.0,120.8218635,6.928564065,-99999.0,'11133222,11111222,99999999' 
TABS,ioos:station:wmo:42046:1,2003-02-02T12:30:00Z,27.8903,-94.0367,2.0,119.8988319,3.691287038,-99999.0,'11133222,11111222,99999999' 
TABS,ioos:station:wmo:42046:1,2003-02-02T13:00:00Z,27.8903,-94.0367,2.0,142.8354016,1.556020565,-99999.0,'11133222,11111222,99999999' 
TABS,ioos:station:wmo:42046:1,2003-02-02T13:30:00Z,27.8903,-94.0367,2.0,83.47217426,2.023116408,-99999.0,'11133222,11111222,99999999' 
TABS,ioos:station:wmo:42046:1,2003-02-02T14:00:00Z,27.8903,-94.0367,2.0,87.73408816,5.564350816,-99999.0,'11133222,11111222,99999999' 
TABS,ioos:station:wmo:42046:1,2003-02-02T14:30:00Z,27.8903,-94.0367,2.0,81.33588483,3.186361561,-99999.0,'11133222,11111222,99999999' 
TABS,ioos:station:wmo:42046:1,2003-02-02T15:00:00Z,27.8903,-94.0367,2.0,55.28765947,4.196975101,-99999.0,'11133222,11111222,99999999' 
TABS,ioos:station:wmo:42046:1,2003-02-02T15:30:00Z,27.8903,-94.0367,2.0,31.1640882,4.908319468,-99999.0,'11133222,11111222,99999999' 
TABS,ioos:station:wmo:42046:1,2003-02-02T16:00:00Z,27.8903,-94.0367,2.0,3.656303626,6.272766535,-99999.0,'11133222,11111222,99999999' 
TABS,ioos:station:wmo:42046:1,2003-02-02T16:30:00Z,27.8903,-94.0367,2.0,13.954687,10.20105877,-99999.0,'11111222,11111222,99999999' 
TABS,ioos:station:wmo:42046:1,2003-02-02T17:00:00Z,27.8903,-94.0367,2.0,11.14761248,13.13787273,-99999.0,'11111222,11111222,99999999' 
TABS,ioos:station:wmo:42046:1,2003-02-02T17:30:00Z,27.8903,-94.0367,2.0,19.69386422,13.5314892,-99999.0,'11111222,11111222,99999999' 
TABS,ioos:station:wmo:42046:1,2003-02-02T18:00:00Z,27.8903,-94.0367,2.0,14.96350976,16.18894685,-99999.0,'11111222,11111222,99999999' 
TABS,ioos:station:wmo:42046:1,2003-02-02T18:30:00Z,27.8903,-94.0367,2.0,20.43734537,16.92535672,-99999.0,'11111222,11111222,99999999' 
TABS,ioos:station:wmo:42046:1,2003-02-02T19:00:00Z,27.8903,-94.0367,2.0,22.51023801,18.46695698,-99999.0,'11111222,11111222,99999999' 
TABS,ioos:station:wmo:42046:1,2003-02-02T19:30:00Z,27.8903,-94.0367,2.0,22.66707798,19.6692374,-99999.0,'11111222,11111222,99999999' 
TABS,ioos:station:wmo:42046:1,2003-02-02T20:00:00Z,27.8903,-94.0367,2.0,25.51898475,21.30880804,-99999.0,'11111222,11111222,99999999' 
TABS,ioos:station:wmo:42046:1,2003-02-02T20:30:00Z,27.8903,-94.0367,2.0,33.069721,20.48905317,-99999.0,'11111222,11111222,99999999' 
TABS,ioos:station:wmo:42046:1,2003-02-02T21:00:00Z,27.8903,-94.0367,2.0,34.46907027,19.38301576,-99999.0,'11111222,11111222,99999999' 
TABS,ioos:station:wmo:42046:1,2003-02-02T21:30:00Z,27.8903,-94.0367,2.0,37.17729304,20.88430032,-99999.0,'11111222,11111222,99999999' 
TABS,ioos:station:wmo:42046:1,2003-02-02T22:00:00Z,27.8903,-94.0367,2.0,38.77066579,20.20111383,-99999.0,'11111222,11111222,99999999' 
TABS,ioos:station:wmo:42046:1,2003-02-02T22:30:00Z,27.8903,-94.0367,2.0,42.83733211,17.98746786,-99999.0,'11111222,11111222,99999999' 
TABS,ioos:station:wmo:42046:1,2003-02-02T23:00:00Z,27.8903,-94.0367,2.0,43.09325297,17.63793922,-99999.0,'11111222,11111222,99999999' 
TABS,ioos:station:wmo:42046:1,2003-02-02T23:30:00Z,27.8903,-94.0367,2.0,52.16420567,15.4221918,-99999.0,'11111222,11111222,99999999' 
TABS,ioos:station:wmo:42046:1,2003-02-03T00:00:00Z,27.8903,-94.0367,2.0,53.64654814,15.75663987,-99999.0,'11111222,11111222,99999999' 
TABS,ioos:station:wmo:42046:1,2003-02-03T00:30:00Z,27.8903,-94.0367,2.0,56.25531898,14.52760476,-99999.0,'11111222,11111222,99999999' 
TABS,ioos:station:wmo:42046:1,2003-02-03T01:00:00Z,27.8903,-94.0367,2.0,61.20258228,13.20282167,-99999.0,'11111222,11111222,99999999' 
TABS,ioos:station:wmo:42046:1,2003-02-03T01:30:00Z,27.8903,-94.0367,2.0,60.55128715,14.40062499,-99999.0,'11111222,11111222,99999999' 
TABS,ioos:station:wmo:42046:1,2003-02-03T02:00:00Z,27.8903,-94.0367,2.0,63.63085553,11.77520276,-99999.0,'11111222,11111222,99999999' 
TABS,ioos:station:wmo:42046:1,2003-02-03T02:30:00Z,27.8903,-94.0367,2.0,59.29344296,13.37530934,-99999.0,'11111222,11111222,99999999' 
TABS,ioos:station:wmo:42046:1,2003-02-03T03:00:00Z,27.8903,-94.0367,2.0,57.32025387,12.4272161,-99999.0,'11111222,11111222,99999999' 
TABS,ioos:station:wmo:42046:1,2003-02-03T03:30:00Z,27.8903,-94.0367,2.0,54.69505523,12.59669798,-99999.0,'11111222,11111222,99999999' 
TABS,ioos:station:wmo:42046:1,2003-02-03T04:00:00Z,27.8903,-94.0367,2.0,44.10493361,12.67290022,-99999.0,'11111222,11111222,99999999' 
TABS,ioos:station:wmo:42046:1,2003-02-03T04:30:00Z,27.8903,-94.0367,2.0,58.67138039,11.30884609,-99999.0,'11111222,11111222,99999999' 
TABS,ioos:station:wmo:42046:1,2003-02-03T05:00:00Z,27.8903,-94.0367,2.0,53.13018857,9.8,-99999.0,'11133222,11111222,99999999' 
TABS,ioos:station:wmo:42046:1,2003-02-03T05:30:00Z,27.8903,-94.0367,2.0,50.0404673,11.42861321,-99999.0,'11111222,11111222,99999999' 
TABS,ioos:station:wmo:42046:1,2003-02-03T06:00:00Z,27.8903,-94.0367,2.0,60.114413,13.12539523,-99999.0,'11111222,11111222,99999999' 
TABS,ioos:station:wmo:42046:1,2003-02-03T06:30:00Z,27.8903,-94.0367,2.0,62.4742146,11.46816899,-99999.0,'11111222,11111222,99999999' 
TABS,ioos:station:wmo:42046:1,2003-02-03T07:00:00Z,27.8903,-94.0367,2.0,57.20231288,12.11057389,-99999.0,'11111222,11111222,99999999' 
TABS,ioos:station:wmo:42046:1,2003-02-03T07:30:00Z,27.8903,-94.0367,2.0,50.16196148,13.51813597,-99999.0,'11111222,11111222,99999999' 
TABS,ioos:station:wmo:42046:1,2003-02-03T08:00:00Z,27.8903,-94.0367,2.0,50.30972756,13.37219877,-99999.0,'11111222,11111222,99999999' 
TABS,ioos:station:wmo:42046:1,2003-02-03T08:30:00Z,27.8903,-94.0367,2.0,45.93806409,10.79896754,-99999.0,'11111222,11111222,99999999' 
TABS,ioos:station:wmo:42046:1,2003-02-03T09:00:00Z,27.8903,-94.0367,2.0,59.50722838,10.64184664,-99999.0,'11111222,11111222,99999999' 
TABS,ioos:station:wmo:42046:1,2003-02-03T09:30:00Z,27.8903,-94.0367,2.0,56.03443834,13.2630351,-99999.0,'11111222,11111222,99999999' 
TABS,ioos:station:wmo:42046:1,2003-02-03T10:00:00Z,27.8903,-94.0367,2.0,61.27974036,7.491655358,-99999.0,'11133222,11111222,99999999' 
TABS,ioos:station:wmo:42046:1,2003-02-03T10:30:00Z,27.8903,-94.0367,2.0,56.22479221,11.18831533,-99999.0,'11111222,11111222,99999999' 
TABS,ioos:station:wmo:42046:1,2003-02-03T11:00:00Z,27.8903,-94.0367,2.0,65.47521446,10.5519856,-99999.0,'11111222,11111222,99999999' 
TABS,ioos:station:wmo:42046:1,2003-02-03T11:30:00Z,27.8903,-94.0367,2.0,45.29178963,9.722844234,-99999.0,'11133222,11111222,99999999' 
TABS,ioos:station:wmo:42046:1,2003-02-03T12:00:00Z,27.8903,-94.0367,2.0,70.93972584,11.29949114,-99999.0,'11111222,11111222,99999999' 
TABS,ioos:station:wmo:42046:1,2003-02-03T12:30:00Z,27.8903,-94.0367,2.0,86.7592177,9.905841711,-99999.0,'11133222,11111222,99999999' 
TABS,ioos:station:wmo:42046:1,2003-02-03T13:00:00Z,27.8903,-94.0367,2.0,66.06469568,8.577645365,-99999.0,'11133222,11111222,99999999' 
TABS,ioos:station:wmo:42046:1,2003-02-03T13:30:00Z,27.8903,-94.0367,2.0,52.24588775,7.904941493,-99999.0,'11133222,11111222,99999999' 
TABS,ioos:station:wmo:42046:1,2003-02-03T14:00:00Z,27.8903,-94.0367,2.0,55.4077922,7.045565982,-99999.0,'11133222,11111222,99999999' 
TABS,ioos:station:wmo:42046:1,2003-02-03T14:30:00Z,27.8903,-94.0367,2.0,58.86629962,9.825197199,-99999.0,'11133222,11111222,99999999' 
TABS,ioos:station:wmo:42046:1,2003-02-03T15:00:00Z,27.8903,-94.0367,2.0,41.50950172,7.665115785,-99999.0,'11133222,11111222,99999999' 
TABS,ioos:station:wmo:42046:1,2003-02-03T15:30:00Z,27.8903,-94.0367,2.0,41.84241762,11.16803027,-99999.0,'11111222,11111222,99999999' 
TABS,ioos:station:wmo:42046:1,2003-02-03T16:00:00Z,27.8903,-94.0367,2.0,22.9125449,12.3547764,-99999.0,'11111222,11111222,99999999' 
TABS,ioos:station:wmo:42046:1,2003-02-03T16:30:00Z,27.8903,-94.0367,2.0,37.70508929,11.5272243,-99999.0,'11111222,11111222,99999999' 
TABS,ioos:station:wmo:42046:1,2003-02-03T17:00:00Z,27.8903,-94.0367,2.0,18.92346426,11.50162162,-99999.0,'11111222,11111222,99999999' 
TABS,ioos:station:wmo:42046:1,2003-02-03T17:30:00Z,27.8903,-94.0367,2.0,35.63244604,14.0752833,-99999.0,'11111222,11111222,99999999' 
TABS,ioos:station:wmo:42046:1,2003-02-03T18:00:00Z,27.8903,-94.0367,2.0,35.17879245,11.3169298,-99999.0,'11111222,11111222,99999999' 
TABS,ioos:station:wmo:42046:1,2003-02-03T18:30:00Z,27.8903,-94.0367,2.0,27.44111226,15.79743017,-99999.0,'11111222,11111222,99999999' 
TABS,ioos:station:wmo:42046:1,2003-02-03T19:00:00Z,27.8903,-94.0367,2.0,40.31421635,16.01292291,-99999.0,'11111222,11111222,99999999' 
TABS,ioos:station:wmo:42046:1,2003-02-03T19:30:00Z,27.8903,-94.0367,2.0,40.07160533,14.89725142,-99999.0,'11111222,11111222,99999999' 
TABS,ioos:station:wmo:42046:1,2003-02-03T20:00:00Z,27.8903,-94.0367,2.0,48.64519555,16.90576825,-99999.0,'11111222,11111222,99999999' 
TABS,ioos:station:wmo:42046:1,2003-02-03T20:30:00Z,27.8903,-94.0367,2.0,45.40645051,16.94977581,-99999.0,'11111222,11111222,99999999' 
TABS,ioos:station:wmo:42046:1,2003-02-03T21:00:00Z,27.8903,-94.0367,2.0,51.71837786,16.8031009,-99999.0,'11111222,11111222,99999999' 
TABS,ioos:station:wmo:42046:1,2003-02-03T21:30:00Z,27.8903,-94.0367,2.0,60.90364657,18.63121037,-99999.0,'11111222,11111222,99999999' 
TABS,ioos:station:wmo:42046:1,2003-02-03T22:00:00Z,27.8903,-94.0367,2.0,59.75132841,16.07924439,-99999.0,'11111222,11111222,99999999' 
TABS,ioos:station:wmo:42046:1,2003-02-03T22:30:00Z,27.8903,-94.0367,2.0,62.06809503,16.31004905,-99999.0,'11111222,11111222,99999999' 
TABS,ioos:station:wmo:42046:1,2003-02-03T23:00:00Z,27.8903,-94.0367,2.0,73.56397921,18.76688839,-99999.0,'11111222,11111222,99999999' 
TABS,ioos:station:wmo:42046:1,2003-02-03T23:30:00Z,27.8903,-94.0367,2.0,73.17640567,17.20643194,-99999.0,'11111222,11111222,99999999' 
TABS,ioos:station:wmo:42046:1,2003-02-04T00:00:00Z,27.8903,-94.0367,2.0,75.71893766,15.32354071,-99999.0,'11111222,11111222,99999999' 
TABS,ioos:station:wmo:42046:1,2003-02-04T00:30:00Z,27.8903,-94.0367,2.0,83.15440252,16.02423789,-99999.0,'11111222,11111222,99999999' 
TABS,ioos:station:wmo:42046:1,2003-02-04T01:00:00Z,27.8903,-94.0367,2.0,81.51160275,16.05588054,-99999.0,'11111222,11111222,99999999' 
TABS,ioos:station:wmo:42046:1,2003-02-04T01:30:00Z,27.8903,-94.0367,2.0,89.70717983,17.61022998,-99999.0,'11111222,11111222,99999999' 
TABS,ioos:station:wmo:42046:1,2003-02-04T02:00:00Z,27.8903,-94.0367,2.0,96.25695027,15.96510257,-99999.0,'11111222,11111222,99999999' 
TABS,ioos:station:wmo:42046:1,2003-02-04T02:30:00Z,27.8903,-94.0367,2.0,104.4167921,16.06591423,-99999.0,'11111222,11111222,99999999' 
TABS,ioos:station:wmo:42046:1,2003-02-04T03:00:00Z,27.8903,-94.0367,2.0,103.1854982,13.7217528,-99999.0,'11111222,11111222,99999999' 
TABS,ioos:station:wmo:42046:1,2003-02-04T03:30:00Z,27.8903,-94.0367,2.0,110.8575945,16.00910991,-99999.0,'11111222,11111222,99999999' 
TABS,ioos:station:wmo:42046:1,2003-02-04T04:00:00Z,27.8903,-94.0367,2.0,117.6666926,12.79267368,-99999.0,'11111222,11111222,99999999' 
TABS,ioos:station:wmo:42046:1,2003-02-04T04:30:00Z,27.8903,-94.0367,2.0,112.6937419,13.11539553,-99999.0,'11111222,11111222,99999999' 
TABS,ioos:station:wmo:42046:1,2003-02-04T05:00:00Z,27.8903,-94.0367,2.0,120.5825657,13.14908742,-99999.0,'11111222,11111222,99999999' 
TABS,ioos:station:wmo:42046:1,2003-02-04T05:30:00Z,27.8903,-94.0367,2.0,132.4531912,14.16319526,-99999.0,'11111222,11111222,99999999' 
TABS,ioos:station:wmo:42046:1,2003-02-04T06:00:00Z,27.8903,-94.0367,2.0,152.8523998,17.59876416,-99999.0,'11111222,11111222,99999999' 
TABS,ioos:station:wmo:42046:1,2003-02-04T06:30:00Z,27.8903,-94.0367,2.0,156.2178147,19.34244038,-99999.0,'11111222,11111222,99999999' 
TABS,ioos:station:wmo:42046:1,2003-02-04T07:00:00Z,27.8903,-94.0367,2.0,145.8654278,10.72822446,-99999.0,'11111222,11111222,99999999' 
TABS,ioos:station:wmo:42046:1,2003-02-04T07:30:00Z,27.8903,-94.0367,2.0,135.7336905,14.35544496,-99999.0,'11111222,11111222,99999999' 
TABS,ioos:station:wmo:42046:1,2003-02-04T08:00:00Z,27.8903,-94.0367,2.0,161.4936649,10.17621737,-99999.0,'11111222,11111222,99999999' 
TABS,ioos:station:wmo:42046:1,2003-02-04T08:30:00Z,27.8903,-94.0367,2.0,142.6632628,11.29437471,-99999.0,'11111222,11111222,99999999' 
TABS,ioos:station:wmo:42046:1,2003-02-04T09:00:00Z,27.8903,-94.0367,2.0,170.5576889,9.326355129,-99999.0,'11133222,11111222,99999999' 
TABS,ioos:station:wmo:42046:1,2003-02-04T09:30:00Z,27.8903,-94.0367,2.0,155.5982738,10.0694836,-99999.0,'11111222,11111222,99999999' 
TABS,ioos:station:wmo:42046:1,2003-02-04T10:00:00Z,27.8903,-94.0367,2.0,167.0120971,6.229357912,-99999.0,'11133222,11111222,99999999' 
TABS,ioos:station:wmo:42046:1,2003-02-04T10:30:00Z,27.8903,-94.0367,2.0,153.9747102,8.068091472,-99999.0,'11133222,11111222,99999999' 
TABS,ioos:station:wmo:42046:1,2003-02-04T11:00:00Z,27.8903,-94.0367,2.0,178.1725727,8.154146185,-99999.0,'11133222,11111222,99999999' 
TABS,ioos:station:wmo:42046:1,2003-02-04T11:30:00Z,27.8903,-94.0367,2.0,154.1128238,9.070126791,-99999.0,'11133222,11111222,99999999' 
TABS,ioos:station:wmo:42046:1,2003-02-04T12:00:00Z,27.8903,-94.0367,2.0,170.7795422,6.615474284,-99999.0,'11133222,11111222,99999999' 
TABS,ioos:station:wmo:42046:1,2003-02-04T12:30:00Z,27.8903,-94.0367,2.0,193.3031889,6.257930968,-99999.0,'11133222,11111222,99999999' 
TABS,ioos:station:wmo:42046:1,2003-02-04T13:00:00Z,27.8903,-94.0367,2.0,189.2678365,10.1829318,-99999.0,'11111222,11111222,99999999' 
TABS,ioos:station:wmo:42046:1,2003-02-04T13:30:00Z,27.8903,-94.0367,2.0,218.1464836,9.244295538,-99999.0,'11133222,11111222,99999999' 
TABS,ioos:station:wmo:42046:1,2003-02-04T14:00:00Z,27.8903,-94.0367,2.0,181.5360861,5.221877057,-99999.0,'11133222,11111222,99999999' 
TABS,ioos:station:wmo:42046:1,2003-02-04T14:30:00Z,27.8903,-94.0367,2.0,155.6297265,2.568890811,-99999.0,'11133222,11111222,99999999' 
TABS,ioos:station:wmo:42046:1,2003-02-04T15:00:00Z,27.8903,-94.0367,2.0,200.0420594,2.480201605,-99999.0,'11133222,11111222,99999999' 
TABS,ioos:station:wmo:42046:1,2003-02-04T15:30:00Z,27.8903,-94.0367,2.0,221.5268989,2.684864987,-99999.0,'11133222,11111222,99999999' 
TABS,ioos:station:wmo:42046:1,2003-02-04T16:00:00Z,27.8903,-94.0367,2.0,198.5312066,5.632024503,-99999.0,'11133222,11111222,99999999' 
TABS,ioos:station:wmo:42046:1,2003-02-04T16:30:00Z,27.8903,-94.0367,2.0,278.5963123,2.609310254,-99999.0,'11133222,11111222,99999999' 
TABS,ioos:station:wmo:42046:1,2003-02-04T17:00:00Z,27.8903,-94.0367,2.0,235.7302159,2.46854208,-99999.0,'11133222,11111222,99999999' 